Meteor 2-5 Rocket - Orbit

View from above orbital plane
View from above orbital plane
View from above satellite
View from above satellite

Ground track
Ground track

The orbit data is extracted from the following two-line orbital elements,

1 11608U 79095B   13137.87529258 -.00000113  00000-0 -75767-4 0  2847
2 11608 081.2154 217.9812 0054874 033.2508 086.6602 14.05946456720515
Epoch (UTC): 17 May 2013 21:00:25
Eccentricity: 0.0054874
inclination: 81.2154°
perigee height: 833 km
apogee height: 913 km
right ascension of ascending node: 217.9812°
argument of perigee: 33.2508°
revolutions per day: 14.05946456
mean anomaly at epoch: 86.6602°
orbit number at epoch: 72051

The dashed part of the orbit path shows where the satellite is in the earth's shadow,  

Developed and maintained by Chris Peat, Heavens-Above GmbH. Please read the updated FAQ before sending e-mail. Imprint. DLR